Location: Gniazdowice
(50.2124°N, 20.2673°E)
Time: 01:50:08
(UTC+00:00)

USA 267 - Pass Details

Date: 23 May 2024
Orbit: 1100 x 1107 km, 123.0° (Epoch: 21 May)

Event Time Altitude Azimuth Distance (km) Brightness Sun altitude
Rises 01:55:58 0° 77° (ENE) 3,920 7.3 -6.5°
Reaches altitude 10° 01:58:31 10° 72° (ENE) 2,961 6.8 -6.2°
Maximum altitude 02:04:45 49° 360° (N) 1,387 4.2 -5.5°
Drops below altitude 10° 02:10:59 10° 288° (WNW) 2,961 5.2 -4.7°
Sets 02:13:32 0° 283° (WNW) 3,919 5.8 -4.4°
